Location: Dimond District
(37.8033°N, 122.2128°W)
Time: 16:54:31
(UTC+00:00)

BREEZE-M DEB (TANK) - Pass Details

Date: 03 August 2024
Orbit: 321 x 16356 km, 49.5° (Epoch: 06 September)

Event Time Altitude Azimuth Distance (km) Brightness Sun altitude
Exits shadow 12:22:27 - 216° (SW) 4,003 6.1 -10.0°
Reaches altitude 10° 12:23:23 10° 215° (SW) 3,570 5.9 -9.8°
Maximum altitude 12:29:47 40° 147° (SSE) 892 3.4 -8.8°
Drops below altitude 10° 12:32:26 10° 73° (ENE) 1,469 6.0 -8.3°
Sets 12:33:53 0° 64° (ENE) 2,148 7.9 -8.1°
